Location: *
(37.9500°N, 27.3666°E)
Time: 05:23:59
(UTC+00:00)

CZ-2C R/B - Pass Details

Date: 24 October 2021
Orbit: 784 x 871 km, 98.2° (Epoch: 03 December)

Event Time Altitude Azimuth Distance (km) Brightness Sun altitude
Rises 17:00:35 0° 5° (N) 3,456 5.8 -20.3°
Reaches altitude 10° 17:03:05 10° 359° (N) 2,508 5.2 -20.8°
Maximum altitude 17:08:18 43° 290° (WNW) 1,185 3.9 -21.8°
Drops below altitude 10° 17:13:25 10° 220° (SW) 2,449 5.6 -22.8°
Sets 17:15:51 0° 213° (SSW) 3,366 6.2 -23.3°
